Simultaneous Nadir Overpasses (SNOs) Predictions

Prediction of SNOs between GOES-14 and AQUA Satellite Orbit:

Table of predicted SNOs for the next 14.0 days since TLE Epoch: 1/22/2021
Index Date Time (GOES-14) GOES-14 Lat,Lon AQUA Lat,Lon Distance(km) Time Diff (sec)
1 01/22/2021 20:44:48 0.07,-104.10 -0.55,-106.92 321.87 80
2 01/24/2021 20:29:58 0.06,-104.09 0.10,-103.97 14.17 80
3 01/26/2021 20:17:47 0.05,-104.09 0.69,-101.01 349.84 80
4 01/27/2021 08:39:04 -0.05,-104.36 0.33,-106.19 206.86 80
5 01/29/2021 08:29:33 -0.04,-104.36 -0.26,-103.22 128.87 80
6 01/29/2021 20:50:57 0.04,-104.09 -0.87,-108.41 490.50 80
7 01/31/2021 08:17:23 -0.04,-104.36 -0.92,-100.28 464.59 80
8 01/31/2021 20:38:46 0.04,-104.09 -0.27,-105.45 154.88 80
9 02/02/2021 20:23:56 0.04,-104.09 0.40,-102.50 180.78 80
10 02/03/2021 08:45:13 -0.04,-104.35 0.64,-107.67 377.19 80
11 02/05/2021 08:33:02 -0.04,-104.35 0.03,-104.71 41.39 80
